Zurück zum Katalog

COSMOS 676

AktivMilitärLEO
NORAD 7433·PAYLOAD·🇷🇺 Russia

Gestartet Sep 11, 1974 von Plesetsk Cosmodrome

Loading…

Nächste Überflüge (nächste 24 Stunden)

TLE

AktuellSource: Space-Track

Epoche: Sep 14, 2026, 13:10 UTC

1 07433U 74071A   26257.54880901  .00000085  00000-0  39995-4 0  9995
2 07433  74.0475 299.7620 0012569 127.3925 232.8373 14.33551668715657

Verfolge COSMOS 676 in Echtzeit mit AllMySat

Download on the App Store